Retour au catalogue

KUIPER-00452

ActifCommunicationsLEO
NORAD 68946·PAYLOAD·🇺🇸 United States

Lancé Apr 30, 2026 depuis Guiana Space Centre

Loading…

Prochains Passages (prochaines 24 heures)

TLE

FraisSource: CelesTrak SupGP

Époque: Sep 14, 2026, 19:37 UTC

1 68946C 26098AD  26257.81796296  .00007938  00000+0  10393-2 0  2579
2 68946  51.9028  14.3254 0000605  98.7634 137.0476 14.79918869    18

Suivez KUIPER-00452 en temps réel avec AllMySat

Download on the App Store